CW8656 Weather Reports


time (UTC)temp
C
wind
direction
speed
KPH
gust
KPH
rain 1hr
cm
rain 24hr
cm
rain mn
cm
humidity
%
barometer
mb
20221207224519 2 0 0.0 6.4 0.00 0.00 0.00 49 1020.3
20221207224000 2 0 0.0 1.6 0.00 0.00 0.00 48 1020.6
20221207223452 2 0 0.0 0.0 0.00 0.00 0.00 48 1020.6
20221207222915 2 0 0.0 0.0 0.00 0.00 0.00 48 1020.7
20221207222332 3 0 0.0 0.0 0.00 0.00 0.00 47 1020.8
20221207221834 3 0 0.0 0.0 0.00 0.00 0.00 46 1020.9
20221207221603 3 0 0.0 0.0 0.00 0.00 0.00 46 1021.3
20221207220831 3 0 0.0 0.0 0.00 0.00 0.00 45 1021.4
20221207220329 3 0 0.0 0.0 0.00 0.00 0.00 45 1021.6
20221207220027 3 0 0.0 0.0 0.00 0.00 0.00 46 1021.4
20221207215223 3 0 0.0 1.6 0.00 0.00 0.00 47 1021.1
20221207214700 3 0 0.0 1.6 0.00 0.00 0.00 47 1020.7
20221207214152 2 0 0.0 4.8 0.00 0.00 0.00 47 1020.7
20221207213646 2 0 0.0 4.8 0.00 0.00 0.00 48 1020.7
20221207213140 3 0 1.6 6.4 0.00 0.00 0.00 47 1020.8
20221207212901 3 0 6.4 9.7 0.00 0.00 0.00 47 1020.8
20221207212119 3 0 6.4 11.3 0.00 0.00 0.00 47 1020.8
20221207211614 3 0 4.8 11.3 0.00 0.00 0.00 46 1020.9
20221207211100 3 0 4.8 11.3 0.00 0.00 0.00 46 1021.2
20221207210822 3 0 4.8 9.7 0.00 0.00 0.00 45 1021.4
20221207210049 3 0 4.8 9.7 0.00 0.00 0.00 45 1021.3
20221207205530 3 0 4.8 14.5 0.00 0.00 0.00 46 1021.3
20221207205301 3 0 8.0 16.1 0.00 0.00 0.00 46 1021.1
20221207204524 3 0 8.0 16.1 0.00 0.00 0.00 45 1021.4
20221207204008 3 0 8.0 19.3 0.00 0.00 0.00 45 1021.6
20221207203734 3 0 6.4 19.3 0.00 0.00 0.00 45 1021.6
20221207202942 3 0 6.4 14.5 0.00 0.00 0.00 45 1021.7
20221207202443 3 0 9.7 20.9 0.00 0.00 0.00 46 1021.4
20221207201937 3 0 9.7 20.9 0.00 0.00 0.00 45 1021.2
20221207201431 3 0 9.7 19.3 0.00 0.00 0.00 45 1021.6
20221207200930 3 0 11.3 19.3 0.00 0.00 0.00 44 1021.4
20221207200659 3 0 8.0 19.3 0.00 0.00 0.00 44 1021.4
20221207195937 3 0 8.0 17.7 0.00 0.00 0.00 44 1021.4
20221207195426 3 0 9.7 17.7 0.00 0.00 0.00 43 1021.4
20221207194922 3 0 6.4 16.1 0.00 0.00 0.00 43 1021.7
20221207194651 3 0 4.8 19.3 0.00 0.00 0.00 43 1021.8
20221207193921 3 0 4.8 19.3 0.00 0.00 0.00 44 1021.6
20221207193640 3 0 9.7 25.7 0.00 0.00 0.00 43 1021.4
20221207192857 2 0 14.5 25.7 0.00 0.00 0.00 43 1020.9
20221207192626 3 0 12.9 22.5 0.00 0.00 0.00 42 1021.1
20221207191852 3 0 12.9 20.9 0.00 0.00 0.00 42 1021.1
20221207191352 3 0 11.3 19.3 0.00 0.00 0.00 42 1021.3
20221207190850 3 0 9.7 16.1 0.00 0.00 0.00 41 1021.4
20221207190338 3 0 8.0 16.1 0.00 0.00 0.00 42 1021.6
20221207185831 3 0 8.0 17.7 0.00 0.00 0.00 43 1021.4
20221207185331 3 0 9.7 17.7 0.00 0.00 0.00 43 1021.4
20221207184832 3 0 9.7 17.7 0.00 0.00 0.00 42 1021.7
20221207184332 3 0 8.0 12.9 0.00 0.00 0.00 42 1021.6
20221207183829 3 0 9.7 20.9 0.00 0.00 0.00 42 1021.6
20221207183329 2 0 11.3 20.9 0.00 0.00 0.00 42 1021.6
20221207182830 3 0 11.3 17.7 0.00 0.00 0.00 42 1021.8
20221207182600 3 0 9.7 17.7 0.00 0.00 0.00 42 1021.8
20221207181823 3 0 9.7 16.1 0.00 0.00 0.00 40 1022.2
20221207181319 3 0 8.0 16.1 0.00 0.00 0.00 39 1022.4
20221207180811 3 0 8.0 16.1 0.00 0.00 0.00 38 1022.6
20221207180308 3 0 8.0 16.1 0.00 0.00 0.00 40 1022.6
20221207175807 3 0 6.4 12.9 0.00 0.00 0.00 39 1022.7
20221207175306 3 0 6.4 12.9 0.00 0.00 0.00 40 1022.8
20221207174758 3 0 8.0 14.5 0.00 0.00 0.00 39 1022.8
20221207174253 3 0 8.0 14.5 0.00 0.00 0.00 39 1022.8
20221207173749 3 0 6.4 14.5 0.00 0.00 0.00 39 1022.9
20221207173519 3 0 8.0 14.5 0.00 0.00 0.00 38 1023.1
20221207173014 3 0 8.0 16.1 0.00 0.00 0.00 39 1022.9
20221207172241 3 0 6.4 16.1 0.00 0.00 0.00 38 1023.2
20221207171741 3 0 6.4 9.7 0.00 0.00 0.00 38 1023.7
20221207171233 3 0 4.8 11.3 0.00 0.00 0.00 38 1023.6
20221207170731 3 0 4.8 16.1 0.00 0.00 0.00 37 1023.3
20221207170232 2 0 9.7 19.3 0.00 0.00 0.00 38 1022.7
20221207165958 2 0 9.7 19.3 0.00 0.00 0.00 38 1022.4
20221207165219 3 0 6.4 19.3 0.00 0.00 0.00 39 1022.6
20221207164711 2 0 4.8 19.3 0.00 0.00 0.00 39 1022.4
20221207164200 2 0 4.8 17.7 0.00 0.00 0.00 39 1022.3
20221207163909 2 0 8.0 20.9 0.00 0.00 0.00 39 1021.9
20221207163138 2 0 4.8 19.3 0.00 0.00 0.00 38 1022.1
20221207162633 2 0 1.6 14.5 0.00 0.00 0.00 39 1022.2
20221207162131 2 0 0.0 8.0 0.00 0.00 0.00 38 1022.4
20221207161631 2 109 0.0 4.8 0.00 0.00 0.00 40 1022.3
20221207161131 1 0 0.0 0.0 0.00 0.00 0.00 41 1021.2
20221207160848 1 0 0.0 0.0 0.00 0.00 0.00 40 1020.4
20221207160114 0 0 0.0 0.0 0.00 0.00 0.00 41 1020.3
20221207155550 0 0 0.0 0.0 0.00 0.00 0.00 41 1020.1
20221207155042 0 0 0.0 1.6 0.00 0.00 0.00 41 1019.8
20221207154534 0 0 0.0 1.6 0.00 0.00 0.00 42 1019.7
20221207154032 0 0 0.0 6.4 0.00 0.00 0.00 42 1019.6
20221207153531 0 0 0.0 6.4 0.00 0.00 0.00 42 1019.7
20221207153035 0 0 0.0 0.0 0.00 0.00 0.00 42 1019.8
20221207152531 0 0 0.0 1.6 0.00 0.00 0.00 41 1019.8
20221207152029 0 0 0.0 1.6 0.00 0.00 0.00 41 1020.1
20221207151528 0 0 0.0 0.0 0.00 0.00 0.00 41 1020.2
20221207151257 0 0 0.0 1.6 0.00 0.00 0.00 42 1020.2
20221207150452 0 0 0.0 6.4 0.00 0.00 0.00 43 1019.8
20221207150209 0 0 3.2 17.7 0.00 0.00 0.00 43 1019.7
20221207145433 0 0 3.2 17.7 0.00 0.00 0.00 43 1019.6
20221207144933 0 0 0.0 6.4 0.00 0.00 0.00 43 1019.2
20221207144429 0 0 0.0 3.2 0.00 0.00 0.00 43 1019.1
20221207144200 0 0 0.0 3.2 0.00 0.00 0.00 44 1019.1
20221207143422 -1 0 0.0 1.6 0.00 0.00 0.00 44 1018.3
20221207142913 -1 0 0.0 1.6 0.00 0.00 0.00 45 1017.9
20221207142409 -1 0 0.0 0.0 0.00 0.00 0.00 45 1017.6
20221207141900 -1 0 0.0 0.0 0.00 0.00 0.00 45 1017.7
20221207141329 -1 0 0.0 0.0 0.00 0.00 0.00 45 1017.6
20221207140809 -1 0 0.0 0.0 0.00 0.00 0.00 45 1017.7
20221207140257 -1 0 0.0 0.0 0.00 0.00 0.00 45 1017.7
20221207135745 -1 0 0.0 0.0 0.00 0.00 0.00 45 1017.4
20221207135503 -1 0 0.0 0.0 0.00 0.00 0.00 45 1017.4
20221207134725 -1 0 0.0 0.0 0.00 0.00 0.00 45 1017.3
20221207134218 -1 0 0.0 0.0 0.00 0.00 0.00 45 1017.6
20221207133709 -1 0 0.0 0.0 0.00 0.00 0.00 45 1017.6
20221207133155 -1 0 0.0 0.0 0.00 0.00 0.00 45 1017.6
20221207132631 -1 0 0.0 0.0 0.00 0.00 0.00 46 1017.4
20221207132126 -2 0 0.0 0.0 0.00 0.00 0.00 47 1016.8
20221207131554 -2 0 0.0 0.0 0.00 0.00 0.00 47 1016.6
20221207131026 -2 0 0.0 0.0 0.00 0.00 0.00 47 1016.6
20221207130527 -2 0 0.0 0.0 0.00 0.00 0.00 47 1016.6
20221207130015 -2 0 0.0 0.0 0.00 0.00 0.00 47 1016.7
20221207125514 -2 0 0.0 0.0 0.00 0.00 0.00 47 1016.7
20221207125009 -2 190 0.0 6.4 0.00 0.00 0.00 48 1016.2
20221207124213 -2 0 0.0 1.6 0.00 0.00 0.00 47 1016.2
20221207123428 -2 0 0.0 0.0 0.00 0.00 0.00 47 1016.2
20221207122929 -2 0 0.0 0.0 0.00 0.00 0.00 46 1016.2
20221207122422 -2 0 1.6 8.0 0.00 0.00 0.00 46 1016.2
20221207121916 -2 0 1.6 8.0 0.00 0.00 0.00 46 1016.2
20221207121352 -2 0 0.0 4.8 0.00 0.00 0.00 47 1016.1
20221207120850 -2 0 1.6 8.0 0.00 0.00 0.00 47 1015.9
20221207120340 -2 0 6.4 12.9 0.00 0.00 0.00 46 1015.9
20221207115841 -2 0 8.0 12.9 0.00 0.00 0.00 47 1015.8
20221207115338 -1 0 6.4 11.3 0.00 0.00 0.00 46 1015.9
20221207114838 -1 150 6.4 9.7 0.00 0.00 0.00 45 1016.2
20221207114609 -1 0 3.2 8.0 0.00 0.00 0.00 45 1016.3
20221207113833 -1 0 1.6 4.8 0.00 0.00 0.00 46 1015.9
20221207113326 -1 0 4.8 16.1 0.00 0.00 0.00 45 1015.7
20221207113039 -1 20 3.2 16.1 0.00 0.00 0.00 45 1015.9
20221207112306 -1 0 4.8 11.3 0.00 0.00 0.00 45 1015.9
20221207111804 -1 0 4.8 11.3 0.00 0.00 0.00 45 1015.8
20221207111254 -1 0 4.8 8.0 0.00 0.00 0.00 45 1015.9
20221207110754 -1 0 4.8 8.0 0.00 0.00 0.00 45 1015.9
20221207110251 -1 0 6.4 17.7 0.00 0.00 0.00 46 1015.8
20221207105752 -1 0 6.4 17.7 0.00 0.00 0.00 46 1016.1
20221207105520 -1 0 3.2 16.1 0.00 0.00 0.00 46 1015.8
20221207104749 -2 0 4.8 9.7 0.00 0.00 0.00 47 1015.3
20221207104247 -2 0 4.8 9.7 0.00 0.00 0.00 51 1015.1
20221207103232 -1 0 4.8 9.7 0.00 0.00 0.00 45 1016.2
20221207102725 -1 198 4.8 9.7 0.00 0.00 0.00 43 1016.6
20221207102219 -1 0 4.8 9.7 0.00 0.00 0.00 43 1016.4
20221207101704 -1 0 8.0 22.5 0.00 0.00 0.00 44 1016.3
20221207101428 -1 0 12.9 25.7 0.00 0.00 0.00 43 1016.3
20221207100638 -1 0 9.7 25.7 0.00 0.00 0.00 44 1016.3
20221207095636 0 0 3.2 11.3 0.00 0.00 0.00 42 1016.8
20221207095137 0 0 4.8 14.5 0.00 0.00 0.00 42 1017.3
20221207094636 0 78 4.8 14.5 0.00 0.00 0.00 39 1017.7
20221207094133 0 0 8.0 22.5 0.00 0.00 0.00 38 1017.9
20221207093630 0 0 9.7 22.5 0.00 0.00 0.00 38 1017.9
20221207093130 0 0 12.9 32.2 0.00 0.00 0.00 38 1017.7
20221207092629 0 0 20.9 41.8 0.00 0.00 0.00 38 1017.6
20221207092401 0 0 24.1 41.8 0.00 0.00 0.00 38 1017.2
20221207091628 0 0 24.1 45.1 0.00 0.00 0.00 39 1017.1
20221207091123 0 0 27.4 45.1 0.00 0.00 0.00 39 1017.1
20221207090119 0 0 25.7 49.9 0.00 0.00 0.00 39 1016.8
20221207085619 0 0 27.4 49.9 0.00 0.00 0.00 38 1016.9
20221207085120 0 0 29.0 49.9 0.00 0.00 0.00 38 1016.8
20221207084851 0 0 29.0 49.9 0.00 0.00 0.00 38 1016.8
20221207084118 0 0 29.0 49.9 0.00 0.00 0.00 38 1016.7
20221207083617 0 0 32.2 54.7 0.00 0.00 0.00 38 1016.7
20221207083116 0 0 32.2 54.7 0.00 0.00 0.00 38 1016.6
20221207082833 0 0 32.2 53.1 0.00 0.00 0.00 38 1016.6
20221207082056 0 0 37.0 62.8 0.00 0.00 0.00 38 1016.7
20221207081549 0 0 37.0 62.8 0.00 0.00 0.00 38 1016.8
20221207081033 0 0 32.2 57.9 0.00 0.00 0.00 38 1016.4
20221207080528 0 0 30.6 57.9 0.00 0.00 0.00 39 1016.1
20221207080023 0 0 32.2 53.1 0.00 0.00 0.00 39 1015.9
20221207075508 0 0 33.8 57.9 0.00 0.00 0.00 40 1016.1
20221207075003 0 0 33.8 57.9 0.00 0.00 0.00 39 1016.2
20221207074457 0 0 33.8 59.5 0.00 0.00 0.00 40 1015.9
20221207073942 0 0 35.4 59.5 0.00 0.00 0.00 40 1016.2
20221207073431 0 0 32.2 56.3 0.00 0.00 0.00 41 1016.1
20221207072929 0 0 30.6 53.1 0.00 0.00 0.00 42 1015.9
20221207072427 0 0 32.2 56.3 0.00 0.00 0.00 43 1015.8
20221207072158 0 0 30.6 56.3 0.00 0.00 0.00 43 1015.9
20221207071427 0 0 29.0 45.1 0.00 0.00 0.00 45 1015.7
20221207070927 0 0 30.6 53.1 0.00 0.00 0.00 45 1015.7
20221207070427 0 0 29.0 53.1 0.00 0.00 0.00 45 1015.9
20221207065926 0 0 29.0 49.9 0.00 0.00 0.00 45 1015.8
20221207065427 0 0 30.6 49.9 0.00 0.00 0.00 45 1015.9
20221207064925 0 0 29.0 51.5 0.00 0.00 0.00 46 1016.1
20221207064424 0 0 27.4 51.5 0.00 0.00 0.00 45 1015.7
20221207063923 0 0 30.6 53.1 0.00 0.00 0.00 45 1015.9
20221207063425 0 0 32.2 53.1 0.00 0.00 0.00 44 1016.1
20221207062924 0 0 32.2 59.5 0.00 0.00 0.00 44 1015.8
20221207062425 0 0 35.4 59.5 0.00 0.00 0.00 43 1016.1
20221207061918 0 0 33.8 53.1 0.00 0.00 0.00 44 1016.1
20221207061412 0 0 32.2 51.5 0.00 0.00 0.00 43 1016.1
20221207060910 0 0 29.0 51.5 0.00 0.00 0.00 43 1015.9
20221207060408 0 0 27.4 45.1 0.00 0.00 0.00 42 1016.1
20221207060139 0 0 25.7 43.5 0.00 0.00 0.00 42 1015.9
20221207055409 0 0 27.4 51.5 0.00 0.00 0.00 43 1015.7
20221207054906 0 0 25.7 51.5 0.00 0.00 0.00 43 1015.9
20221207054407 0 0 24.1 45.1 0.00 0.00 0.00 43 1015.9
20221207053404 0 0 25.7 46.7 0.00 0.00 0.00 43 1016.1
20221207052903 0 0 24.1 46.7 0.00 0.00 0.00 43 1016.3
20221207052403 0 0 22.5 40.2 0.00 0.00 0.00 44 1015.8
20221207051402 0 0 24.1 41.8 0.00 0.00 0.00 44 1015.7
20221207050902 0 0 24.1 41.8 0.00 0.00 0.00 44 1015.6
20221207050400 0 0 24.1 41.8 0.00 0.00 0.00 44 1015.6
20221207045900 0 0 22.5 38.6 0.00 0.00 0.00 45 1015.3
20221207045400 0 0 22.5 38.6 0.00 0.00 0.00 45 1015.4
20221207044901 0 0 22.5 38.6 0.00 0.00 0.00 45 1015.6
20221207044400 0 0 20.9 37.0 0.00 0.00 0.00 46 1015.6
20221207043856 0 0 22.5 38.6 0.00 0.00 0.00 46 1015.6
20221207043626 0 0 24.1 43.5 0.00 0.00 0.00 46 1015.4
20221207043127 0 0 25.7 43.5 0.00 0.00 0.00 46 1015.3
20221207042356 0 0 24.1 38.6 0.00 0.00 0.00 47 1015.3
20221207041851 0 0 24.1 38.6 0.00 0.00 0.00 47 1015.3
20221207041343 0 0 24.1 41.8 0.00 0.00 0.00 47 1015.4
20221207040844 0 0 25.7 41.8 0.00 0.00 0.00 47 1015.3
20221207040343 0 0 25.7 40.2 0.00 0.00 0.00 48 1015.4
20221207040115 0 0 22.5 41.8 0.00 0.00 0.00 48 1015.2
20221207035614 0 0 22.5 41.8 0.00 0.00 0.00 48 1015.1
20221207034340 0 0 25.7 43.5 0.00 0.00 0.00 48 1015.3
20221207033835 0 0 24.1 43.5 0.00 0.00 0.00 48 1015.3
20221207033602 0 0 27.4 45.1 0.00 0.00 0.00 49 1015.3
20221207032817 0 0 29.0 46.7 0.00 0.00 0.00 49 1015.4
20221207032317 0 0 25.7 46.7 0.00 0.00 0.00 48 1015.4
20221207031803 0 0 22.5 40.2 0.00 0.00 0.00 49 1015.4
20221207031256 0 0 24.1 38.6 0.00 0.00 0.00 49 1015.2
20221207031021 0 0 22.5 40.2 0.00 0.00 0.00 49 1015.1
20221207030236 0 0 22.5 40.2 0.00 0.00 0.00 49 1015.2
20221207025730 0 0 22.5 40.2 0.00 0.00 0.00 48 1015.3
20221207025224 0 0 24.1 38.6 0.00 0.00 0.00 49 1015.3
20221207024940 0 0 24.1 40.2 0.00 0.00 0.00 49 1015.3
20221207024158 0 0 20.9 40.2 0.00 0.00 0.00 50 1015.1
20221207023654 0 0 20.9 33.8 0.00 0.00 0.00 51 1014.9
20221207023145 0 0 22.5 33.8 0.00 0.00 0.00 51 1015.2
20221207022635 0 0 22.5 33.8 0.00 0.00 0.00 51 1015.4
20221207022133 0 0 22.5 33.8 0.00 0.00 0.00 51 1015.3
20221207021620 0 0 20.9 33.8 0.00 0.00 0.00 51 1015.2
20221207021111 0 0 20.9 35.4 0.00 0.00 0.00 51 1015.2
20221207020839 0 0 20.9 37.0 0.00 0.00 0.00 51 1015.1
20221207020050 0 0 19.3 37.0 0.00 0.00 0.00 51 1015.2
20221207015547 0 0 17.7 30.6 0.00 0.00 0.00 51 1014.9
20221207015313 0 0 17.7 30.6 0.00 0.00 0.00 50 1015.1
20221207014802 0 0 16.1 25.7 0.00 0.00 0.00 50 1014.8
20221207014031 0 0 14.5 25.7 0.00 0.00 0.00 50 1014.7
20221207013530 0 0 14.5 25.7 0.00 0.00 0.00 49 1014.6
20221207013032 0 0 14.5 25.7 0.00 0.00 0.00 49 1014.8
20221207012531 0 0 14.5 22.5 0.00 0.00 0.00 48 1015.1
20221207012301 0 0 16.1 25.7 0.00 0.00 0.00 48 1015.2
20221207011531 0 0 17.7 27.4 0.00 0.00 0.00 47 1015.1
20221207011031 0 0 17.7 30.6 0.00 0.00 0.00 47 1015.1
20221207010532 0 0 16.1 30.6 0.00 0.00 0.00 47 1015.1
20221207010030 0 0 14.5 25.7 0.00 0.00 0.00 47 1015.1
20221207005031 0 0 12.9 20.9 0.00 0.00 0.00 47 1015.1
20221207004531 0 0 14.5 24.1 0.00 0.00 0.00 47 1014.8
20221207004021 0 0 14.5 24.1 0.00 0.00 0.00 46 1014.8
20221207003518 0 0 11.3 27.4 0.00 0.00 0.00 47 1014.7
20221207003251 0 0 11.3 27.4 0.00 0.00 0.00 47 1014.6
20221207002749 0 0 12.9 25.7 0.00 0.00 0.00 47 1014.6
20221207002247 0 0 16.1 27.4 0.00 0.00 0.00 46 1014.7
20221207001516 0 0 16.1 29.0 0.00 0.00 0.00 47 1014.7
20221207001016 0 0 17.7 30.6 0.00 0.00 0.00 47 1014.7
20221207000518 0 0 16.1 30.6 0.00 0.00 0.00 46 1014.7
20221207000012 0 0 16.1 40.2 0.00 0.00 0.00 46 1014.6
20221206235513 0 0 16.1 40.2 0.00 0.00 0.00 45 1014.4
20221206235012 0 0 14.5 25.7 0.00 0.00 0.00 45 1014.2
20221206234514 0 0 17.7 29.0 0.00 0.00 0.00 45 1014.2
20221206234003 1 0 17.7 29.0 0.00 0.00 0.00 45 1014.1
20221206233500 0 0 16.1 25.7 0.00 0.00 0.00 45 1014.1
20221206233232 0 0 16.1 25.7 0.00 0.00 0.00 45 1014.1
20221206232501 1 0 17.7 30.6 0.00 0.00 0.00 44 1014.2
20221206231959 1 0 19.3 30.6 0.00 0.00 0.00 44 1014.3
20221206230959 1 0 17.7 37.0 0.00 0.00 0.00 44 1014.2
20221206230459 1 0 19.3 37.0 0.00 0.00 0.00 43 1014.2
20221206225953 1 0 19.3 35.4 0.00 0.00 0.00 43 1013.9
20221206225433 1 0 17.7 29.0 0.00 0.00 0.00 42 1013.9
20221206224923 1 0 17.7 30.6 0.00 0.00 0.00 42 1013.9